Location: Siratepeler Tepesi
(39.1042°N, 32.0781°E)
Time: 10:11:46
(UTC+00:00)

In-Cosmos 22 Rocket - Pass Details

Date: 11 April 2026
Orbit: 789 x 886 km, 81.2° (Epoch: 14 May)

Event Time Altitude Azimuth Distance (km) Brightness Sun altitude
Rises 18:28:39 0° 351° (N) 3,314 7.9 -22.9°
Reaches altitude 10° 18:31:03 10° 352° (N) 2,372 7.1 -23.3°
Maximum altitude 18:36:23 83° 81° (E) 800 3.9 -24.2°
Enters shadow 18:37:16 63° 158° (SSE) 880 4.0 -24.3°
